Time,TemperatureF,DewpointF,PressureIn,WindDirection,WindDirectionDegrees,WindSpeedMPH,WindSpeedGustMPH,Humidity,HourlyPrecipIn,Conditions,Clouds,dailyrainin,SoftwareType,DateUTC
2013-03-12 00:10:00,32.6,20.0,25.72,NW,316,20.0,21.0,61,0.00,,,0.00,weatherlink.com 1.10,2013-03-12 06:10:00,
2013-03-12 00:25:00,32.0,22.0,25.72,NW,310,11.0,19.0,67,0.00,,,0.00,weatherlink.com 1.10,2013-03-12 06:25:00,
2013-03-12 00:40:00,31.5,22.0,25.72,NW,308,10.0,15.0,69,0.00,,,0.00,weatherlink.com 1.10,2013-03-12 06:40:00,
2013-03-12 00:55:00,31.6,22.0,25.72,NW,325,10.0,14.0,69,0.00,,,0.00,weatherlink.com 1.10,2013-03-12 06:55:00,
2013-03-12 01:10:00,31.7,22.0,25.73,NNW,332,14.0,20.0,67,0.00,,,0.00,weatherlink.com 1.10,2013-03-12 07:10:00,
2013-03-12 01:25:00,31.6,21.0,25.74,NNW,342,13.0,19.0,66,0.00,,,0.00,weatherlink.com 1.10,2013-03-12 07:25:00,
2013-03-12 01:40:00,31.2,21.0,25.74,NNW,344,10.0,19.0,67,0.00,,,0.00,weatherlink.com 1.10,2013-03-12 07:40:00,
2013-03-12 01:55:00,30.7,22.0,25.75,NNW,338,10.0,14.0,70,0.00,,,0.00,weatherlink.com 1.10,2013-03-12 07:55:00,
2013-03-12 02:10:00,30.5,23.0,25.75,NNW,340,12.0,15.0,73,0.00,,,0.00,weatherlink.com 1.10,2013-03-12 08:10:00,
2013-03-12 02:25:00,30.7,22.0,25.76,NNW,328,16.0,24.0,71,0.00,,,0.00,weatherlink.com 1.10,2013-03-12 08:25:00,
2013-03-12 02:40:00,30.4,21.0,25.76,NW,324,16.0,23.0,69,0.00,,,0.00,weatherlink.com 1.10,2013-03-12 08:40:00,
2013-03-12 02:55:00,30.1,22.0,25.76,NNW,329,8.0,19.0,71,0.00,,,0.00,weatherlink.com 1.10,2013-03-12 08:55:00,
2013-03-12 03:10:00,30.1,21.0,25.75,NW,311,12.0,23.0,68,0.00,,,0.00,weatherlink.com 1.10,2013-03-12 09:10:00,
2013-03-12 03:26:00,29.3,20.0,25.75,NW,321,12.0,21.0,68,0.00,,,0.00,weatherlink.com 1.10,2013-03-12 09:26:00,
2013-03-12 03:41:00,28.8,20.0,25.75,NW,309,16.0,22.0,71,0.00,,,0.00,weatherlink.com 1.10,2013-03-12 09:41:00,
2013-03-12 03:56:00,28.3,22.0,25.75,NW,307,15.0,22.0,76,0.00,,,0.00,weatherlink.com 1.10,2013-03-12 09:56:00,
2013-03-12 04:26:00,27.7,22.0,25.76,NW,311,14.0,23.0,80,0.00,,,0.00,weatherlink.com 1.10,2013-03-12 10:26:00,
2013-03-12 05:26:00,26.9,21.0,25.78,NNW,330,14.0,18.0,78,0.00,,,0.00,weatherlink.com 1.10,2013-03-12 11:26:00,
2013-03-12 05:41:00,26.8,21.0,25.79,NW,322,14.0,18.0,78,0.00,,,0.00,weatherlink.com 1.10,2013-03-12 11:41:00,
2013-03-12 05:56:00,26.8,21.0,25.79,NW,320,12.0,17.0,78,0.00,,,0.00,weatherlink.com 1.10,2013-03-12 11:56:00,
2013-03-12 06:11:00,26.4,21.0,25.79,NW,319,14.0,21.0,79,0.00,,,0.00,weatherlink.com 1.10,2013-03-12 12:11:00,
2013-03-12 06:26:00,25.8,21.0,25.79,NNW,332,16.0,19.0,81,0.00,,,0.00,weatherlink.com 1.10,2013-03-12 12:26:00,
2013-03-12 06:41:00,26.0,21.0,25.79,NW,323,16.0,23.0,82,0.00,,,0.00,weatherlink.com 1.10,2013-03-12 12:41:00,
2013-03-12 06:56:00,25.8,21.0,25.80,NW,316,13.0,19.0,81,0.00,,,0.00,weatherlink.com 1.10,2013-03-12 12:56:00,
2013-03-12 07:11:00,25.0,20.0,25.80,NNW,332,11.0,18.0,82,0.00,,,0.00,weatherlink.com 1.10,2013-03-12 13:11:00,
2013-03-12 07:26:00,24.6,20.0,25.81,NW,311,13.0,17.0,82,0.00,,,0.00,weatherlink.com 1.10,2013-03-12 13:26:00,
2013-03-12 07:41:00,25.1,20.0,25.81,NW,315,13.0,15.0,80,0.00,,,0.00,weatherlink.com 1.10,2013-03-12 13:41:00,
2013-03-12 07:56:00,25.6,20.0,25.82,NW,311,14.0,15.0,79,0.00,,,0.00,weatherlink.com 1.10,2013-03-12 13:56:00,
2013-03-12 08:11:00,26.5,19.0,25.82,NW,324,15.0,21.0,74,0.00,,,0.00,weatherlink.com 1.10,2013-03-12 14:11:00,
2013-03-12 08:26:00,27.3,20.0,25.82,NW,326,15.0,24.0,74,0.00,,,0.00,weatherlink.com 1.10,2013-03-12 14:26:00,
2013-03-12 08:41:00,27.5,20.0,25.82,NW,324,24.0,31.0,72,0.00,,,0.00,weatherlink.com 1.10,2013-03-12 14:41:00,
2013-03-12 08:56:00,27.8,19.0,25.83,NW,314,22.0,37.0,69,0.00,,,0.00,weatherlink.com 1.10,2013-03-12 14:56:00,
2013-03-12 09:11:00,28.2,16.0,25.83,NW,323,23.0,32.0,60,0.00,,,0.00,weatherlink.com 1.10,2013-03-12 15:11:00,
2013-03-12 09:26:00,28.5,14.0,25.83,NW,326,27.0,34.0,55,0.00,,,0.00,weatherlink.com 1.10,2013-03-12 15:26:00,
2013-03-12 09:41:00,29.1,14.0,25.83,NNW,333,22.0,30.0,53,0.00,,,0.00,weatherlink.com 1.10,2013-03-12 15:41:00,
2013-03-12 09:56:00,29.5,14.0,25.84,NNW,332,18.0,28.0,52,0.00,,,0.00,weatherlink.com 1.10,2013-03-12 15:56:00,
2013-03-12 10:11:00,30.1,14.0,25.84,NW,326,28.0,31.0,52,0.00,,,0.00,weatherlink.com 1.10,2013-03-12 16:11:00,
2013-03-12 10:27:00,30.2,14.0,25.84,NNW,333,18.0,30.0,52,0.00,,,0.00,weatherlink.com 1.10,2013-03-12 16:27:00,
2013-03-12 10:41:00,30.6,14.0,25.84,NNW,345,17.0,30.0,51,0.00,,,0.00,weatherlink.com 1.10,2013-03-12 16:41:00,
2013-03-12 10:57:00,31.4,15.0,25.85,NW,323,17.0,25.0,51,0.00,,,0.00,weatherlink.com 1.10,2013-03-12 16:57:00,
2013-03-12 11:27:00,31.7,15.0,25.85,NW,326,17.0,29.0,51,0.00,,,0.00,weatherlink.com 1.10,2013-03-12 17:27:00,
2013-03-12 11:42:00,32.7,15.0,25.84,NNW,328,21.0,27.0,49,0.00,,,0.00,weatherlink.com 1.10,2013-03-12 17:42:00,
2013-03-12 11:57:00,33.0,15.0,25.84,NW,306,14.0,29.0,48,0.00,,,0.00,weatherlink.com 1.10,2013-03-12 17:57:00,
2013-03-12 12:12:00,34.0,17.0,25.83,NW,311,19.0,26.0,50,0.00,,,0.00,weatherlink.com 1.10,2013-03-12 18:12:00,
2013-03-12 12:27:00,34.7,17.0,25.83,NW,309,19.0,24.0,48,0.00,,,0.00,weatherlink.com 1.10,2013-03-12 18:27:00,
2013-03-12 12:42:00,34.9,17.0,25.83,NW,324,20.0,24.0,49,0.00,,,0.00,weatherlink.com 1.10,2013-03-12 18:42:00,
2013-03-12 12:57:00,36.1,17.0,25.83,NW,304,22.0,24.0,47,0.00,,,0.00,weatherlink.com 1.10,2013-03-12 18:57:00,
2013-03-12 13:12:00,36.1,17.0,25.83,NW,304,13.0,27.0,46,0.00,,,0.00,weatherlink.com 1.10,2013-03-12 19:12:00,
2013-03-12 13:27:00,36.8,16.0,25.82,NNW,328,16.0,25.0,43,0.00,,,0.00,weatherlink.com 1.10,2013-03-12 19:27:00,
2013-03-12 13:42:00,37.8,16.0,25.82,NNW,342,13.0,25.0,42,0.00,,,0.00,weatherlink.com 1.10,2013-03-12 19:42:00,
2013-03-12 13:57:00,38.0,16.0,25.81,NW,314,21.0,25.0,41,0.00,,,0.00,weatherlink.com 1.10,2013-03-12 19:57:00,
2013-03-12 14:12:00,38.8,16.0,25.81,NW,318,16.0,29.0,39,0.00,,,0.00,weatherlink.com 1.10,2013-03-12 20:12:00,
2013-03-12 14:27:00,39.3,16.0,25.81,NW,309,13.0,26.0,39,0.00,,,0.00,weatherlink.com 1.10,2013-03-12 20:27:00,
2013-03-12 14:42:00,39.8,16.0,25.80,NNW,328,13.0,27.0,38,0.00,,,0.00,weatherlink.com 1.10,2013-03-12 20:42:00,
2013-03-12 14:57:00,39.6,16.0,25.80,NNW,345,14.0,25.0,38,0.00,,,0.00,weatherlink.com 1.10,2013-03-12 20:57:00,
2013-03-12 15:12:00,40.1,16.0,25.80,NNW,335,20.0,28.0,38,0.00,,,0.00,weatherlink.com 1.10,2013-03-12 21:12:00,
2013-03-12 15:42:00,40.7,16.0,25.79,NNW,333,15.0,23.0,37,0.00,,,0.00,weatherlink.com 1.10,2013-03-12 21:42:00,
2013-03-12 15:57:00,40.3,15.0,25.79,NNW,339,8.0,20.0,36,0.00,,,0.00,weatherlink.com 1.10,2013-03-12 21:57:00,
2013-03-12 16:12:00,40.9,16.0,25.79,NNW,332,12.0,20.0,37,0.00,,,0.00,weatherlink.com 1.10,2013-03-12 22:12:00,
2013-03-12 16:27:00,40.9,16.0,25.78,NW,323,17.0,19.0,37,0.00,,,0.00,weatherlink.com 1.10,2013-03-12 22:27:00,
2013-03-12 16:42:00,40.9,16.0,25.78,NNW,344,7.0,19.0,37,0.00,,,0.00,weatherlink.com 1.10,2013-03-12 22:42:00,
2013-03-12 16:57:00,41.1,18.0,25.78,NW,316,10.0,18.0,39,0.00,,,0.00,weatherlink.com 1.10,2013-03-12 22:57:00,
2013-03-12 17:13:00,41.1,16.0,25.78,NW,326,8.0,15.0,37,0.00,,,0.00,weatherlink.com 1.10,2013-03-12 23:13:00,
2013-03-12 17:27:00,41.0,16.0,25.78,NNW,332,7.0,13.0,36,0.00,,,0.00,weatherlink.com 1.10,2013-03-12 23:27:00,
2013-03-12 17:42:00,40.7,17.0,25.78,NW,325,8.0,11.0,38,0.00,,,0.00,weatherlink.com 1.10,2013-03-12 23:42:00,
2013-03-12 17:57:00,40.4,16.0,25.78,NW,317,5.0,8.0,38,0.00,,,0.00,weatherlink.com 1.10,2013-03-12 23:57:00,
2013-03-12 18:12:00,40.4,18.0,25.78,NNW,328,2.0,5.0,40,0.00,,,0.00,weatherlink.com 1.10,2013-03-13 00:12:00,
2013-03-12 18:27:00,39.6,17.0,25.78,NW,304,3.0,4.0,40,0.00,,,0.00,weatherlink.com 1.10,2013-03-13 00:27:00,
2013-03-12 18:42:00,38.1,18.0,25.78,WSW,239,4.0,5.0,44,0.00,,,0.00,weatherlink.com 1.10,2013-03-13 00:42:00,
2013-03-12 18:57:00,34.7,20.0,25.79,WSW,248,4.0,5.0,55,0.00,,,0.00,weatherlink.com 1.10,2013-03-13 00:57:00,
2013-03-12 19:12:00,34.1,20.0,25.79,WSW,240,4.0,4.0,57,0.00,,,0.00,weatherlink.com 1.10,2013-03-13 01:12:00,
2013-03-12 19:27:00,31.6,20.0,25.79,SW,236,3.0,4.0,62,0.00,,,0.00,weatherlink.com 1.10,2013-03-13 01:27:00,
2013-03-12 19:42:00,31.8,21.0,25.79,West,259,4.0,5.0,64,0.00,,,0.00,weatherlink.com 1.10,2013-03-13 01:42:00,
2013-03-12 19:57:00,31.6,20.0,25.80,West,266,1.0,3.0,63,0.00,,,0.00,weatherlink.com 1.10,2013-03-13 01:57:00,
2013-03-12 20:12:00,30.2,20.0,25.79,WSW,251,1.0,4.0,66,0.00,,,0.00,weatherlink.com 1.10,2013-03-13 02:12:00,
2013-03-12 20:27:00,29.9,20.0,25.80,SW,221,1.0,2.0,67,0.00,,,0.00,weatherlink.com 1.10,2013-03-13 02:27:00,
2013-03-12 20:42:00,28.8,19.0,25.80,SW,217,7.0,9.0,68,0.00,,,0.00,weatherlink.com 1.10,2013-03-13 02:42:00,
2013-03-12 20:57:00,28.3,21.0,25.80,WSW,238,7.0,7.0,73,0.00,,,0.00,weatherlink.com 1.10,2013-03-13 02:57:00,
2013-03-12 21:12:00,28.2,22.0,25.80,SW,236,6.0,6.0,76,0.00,,,0.00,weatherlink.com 1.10,2013-03-13 03:12:00,
2013-03-12 21:27:00,27.8,22.0,25.80,SW,236,4.0,6.0,79,0.00,,,0.00,weatherlink.com 1.10,2013-03-13 03:27:00,
2013-03-12 21:42:00,27.5,22.0,25.80,WSW,238,3.0,4.0,80,0.00,,,0.00,weatherlink.com 1.10,2013-03-13 03:42:00,
2013-03-12 21:57:00,27.8,23.0,25.81,SW,236,5.0,5.0,82,0.00,,,0.00,weatherlink.com 1.10,2013-03-13 03:57:00,
2013-03-12 22:12:00,27.6,23.0,25.81,WSW,238,3.0,3.0,82,0.00,,,0.00,weatherlink.com 1.10,2013-03-13 04:12:00,
2013-03-12 22:27:00,27.5,23.0,25.81,West,266,3.0,3.0,83,0.00,,,0.00,weatherlink.com 1.10,2013-03-13 04:27:00,
2013-03-12 22:42:00,28.5,25.0,25.81,WSW,257,3.0,4.0,85,0.00,,,0.00,weatherlink.com 1.10,2013-03-13 04:42:00,
2013-03-12 22:57:00,29.0,25.0,25.81,WSW,238,4.0,4.0,83,0.00,,,0.00,weatherlink.com 1.10,2013-03-13 04:57:00,
2013-03-12 23:12:00,28.0,24.0,25.81,SW,229,5.0,6.0,84,0.00,,,0.00,weatherlink.com 1.10,2013-03-13 05:12:00,
2013-03-12 23:27:00,27.5,24.0,25.81,SW,219,4.0,6.0,86,0.00,,,0.00,weatherlink.com 1.10,2013-03-13 05:27:00,
2013-03-12 23:42:00,27.5,24.0,25.81,SW,229,4.0,5.0,87,0.00,,,0.00,weatherlink.com 1.10,2013-03-13 05:42:00,
2013-03-12 23:57:00,26.7,23.0,25.81,SSW,210,3.0,5.0,86,0.00,,,0.00,weatherlink.com 1.10,2013-03-13 05:57:00,